Weather History for Mayo, YT

Change the Weather History Date:

Tuesday, November 13, 2012

  Actual Average Record
Temperature  
Mean Temperature -17 °F -  
Max Temperature -7 °F 5 °F 33 °F (2010)
Min Temperature -27 °F -12 °F -27 °F (2012)
Degree Days  
Heating Degree Days 82    
Moisture  
Dew Point -20 °F    
Average Humidity 87    
Maximum Humidity 100    
Minimum Humidity 77    
Precipitation  
Precipitation 0.00 in 0.03 in - ()
Sea Level Pressure  
Sea Level Pressure 30.30 in    
Wind  
Wind Speed 0 mph ()    
Max Wind Speed 6 mph    
Max Gust Speed -    
Visibility 16.2 miles    
Events Snow    
Averages and records for this station are not official NWS values.
T = Trace of Precipitation, MM = Missing Value Source: Averaged Metar Reports

Daily Weather History Graph

Daily Weather History Graph

Search for Another Location

Airport:

Trip Planner

Search our weather history database for the weather conditions in past years. The results will help you decide how hot, cold, wet, or windy it might be!

Date:

Astronomy

Nov. 13, 2012 Rise Set
Actual Time 9:23 AM PST 4:11 PM PST
Civil Twilight 8:25 AM PST 5:08 PM PST
Nautical Twilight 7:26 AM PST 6:07 PM PST
Astronomical Twilight 6:31 AM PST 7:02 PM PST
Moon 9:21 AM PST (11/13) 3:56 PM PST (11/13)
Length of Visible Light 8h 43m
Length of Day
6h 47m
Waning Crescent, 0% of the Moon is Illuminated
Nov 13
Waning Crescent
Nov 13
New
Nov 20
First Quarter
Nov 28
Full
Dec 6
Last Quarter

Hourly Weather History & Observations

Time (PST) Temp. Windchill Dew Point Humidity Pressure Visibility Wind Dir Wind Speed Gust Speed Precip Events Conditions
12:00 AM -25.6 °F - -29.2 °F 83% 30.35 in 20.0 mi Calm Calm - N/A   Clear
1:00 AM -27.4 °F - -29.2 °F 91% 30.36 in 20.0 mi Calm Calm - N/A   Scattered Clouds
1:35 AM - - - N/A% - 20.0 mi Calm Calm - N/A   Unknown
2:00 AM -23.8 °F - -23.8 °F 100% 30.36 in 20.0 mi Calm Calm - N/A Snow Light Snow
5:00 AM -16.6 °F - -18.4 °F 92% 30.34 in 20.0 mi Calm Calm - N/A Snow Light Snow
6:00 AM -16.6 °F - -16.6 °F 100% 30.33 in 20.0 mi Calm Calm - N/A Snow Light Snow
7:00 AM -14.8 °F - -16.6 °F 92% 30.32 in 20.0 mi Calm Calm - N/A Snow Light Snow
8:00 AM -14.8 °F - -16.6 °F 92% 30.29 in 20.0 mi Calm Calm - N/A Snow Light Snow
9:00 AM -13.0 °F - -16.6 °F 84% 30.30 in 8.0 mi SSE 2.3 mph - N/A Snow Light Snow
10:00 AM -13.0 °F - -14.8 °F 92% 30.29 in 8.0 mi Calm Calm - N/A Snow Light Snow
10:33 AM - - - N/A% - 2.0 mi Calm Calm - N/A   Unknown
11:00 AM -11.2 °F - -14.8 °F 84% 30.27 in 3.0 mi Calm Calm - N/A Snow Light Snow
12:00 PM -11.2 °F - -14.8 °F 84% 30.29 in 3.0 mi Calm Calm - N/A Snow Light Snow
12:39 PM - - - N/A% - 10.0 mi Calm Calm - N/A   Unknown
1:00 PM -9.4 °F - -13.0 °F 84% 30.29 in 10.0 mi Calm Calm - N/A Snow Light Snow
2:00 PM -7.6 °F - -13.0 °F 77% 30.29 in 20.0 mi Calm Calm - N/A Snow Light Snow
3:00 PM -7.6 °F - -11.2 °F 84% 30.30 in 20.0 mi Calm Calm - N/A   Partly Cloudy
4:00 PM -9.4 °F - -14.8 °F 77% 30.29 in 20.0 mi Calm Calm - N/A   Partly Cloudy
5:00 PM -13.0 °F -27.0 °F -18.4 °F 77% 30.30 in 20.0 mi WNW 5.8 mph - N/A   Clear
6:00 PM -18.4 °F - -22.0 °F 84% 30.30 in 20.0 mi West 2.3 mph - N/A   Clear
7:00 PM -22.0 °F - -25.6 °F 83% 30.31 in 20.0 mi Calm Calm - N/A   Clear
8:00 PM -23.8 °F - -23.8 °F 100% 30.30 in 20.0 mi Calm Calm - N/A   Clear
9:00 PM -25.6 °F - -29.2 °F 83% 30.29 in 20.0 mi Calm Calm - N/A   Clear
10:00 PM -23.8 °F - -27.4 °F 83% 30.27 in 20.0 mi Calm Calm - N/A   Clear
11:00 PM -27.4 °F -39.2 °F -31.0 °F 83% 30.26 in 20.0 mi NNE 3.5 mph - N/A   Clear